Weather History for KI16 - January, 2014

Change the Weather History Date:

Tuesday, January 21, 2014

  Actual Average (KBKW) Record (KBKW)
Temperature  
Mean Temperature 26 °F 31 °F  
Max Temperature 35 °F 39 °F 71 °F (1906)
Min Temperature 15 °F 23 °F -22 °F (1985)
Degree Days  
Heating Degree Days 40 34  
Month to date heating degree days 714  
Since 1 July heating degree days 2807  
Cooling Degree Days 0 0  
Month to date cooling degree days 0  
Year to date cooling degree days 0  
Moisture  
Dew Point 26 °F    
Average Humidity 93    
Maximum Humidity 100    
Minimum Humidity 81    
Precipitation  
Precipitation 0.00 in 0.09 in 1.48 in (1947)
Month to date precipitation 1.92  
Year to date precipitation 1.92  
Snow  
Snow 0.00 in - - ()
Month to date snowfall  
Since 1 September snowfall  
Snow Depth -    
Sea Level Pressure  
Sea Level Pressure 29.80 in    
Wind  
Wind Speed - (North)    
Max Wind Speed -    
Max Gust Speed -    
Visibility 6 miles    
Events Snow    
T = Trace of Precipitation, MM = Missing Value Source: NWS Daily Summary

Daily Weather History Graph

Daily Weather History Graph

Search for Another Location

Airport or City:

Trip Planner

Search our weather history database for the weather conditions in past years. The results will help you decide how hot, cold, wet, or windy it might be!

Date:

Astronomy

Jan. 21, 2014 Rise Set
Actual Time 7:37 AM EST 5:38 PM EST
Civil Twilight 7:09 AM EST 6:06 PM EST
Nautical Twilight 6:37 AM EST 6:38 PM EST
Astronomical Twilight 6:06 AM EST 7:09 PM EST
Moon 11:02 PM EST (1/21) 10:13 AM EST (1/21)
Length of Visible Light 10h 57m
Length of Day
10h 00m
Waning Gibbous, 75% of the Moon is Illuminated
Jan 21
Waning Gibbous
Jan 24
Last Quarter
Jan 30
New
Feb 6
First Quarter
Feb 14
Full

Hourly Weather History & Observations

Time (EST) Temp. Dew Point Humidity Pressure Visibility Wind Dir Wind Speed Gust Speed Precip Events Conditions
12:15 AM 28.4 °F 28.0 °F 99% 29.85 in 10.0 mi North - - N/A   Clear
12:35 AM 28.4 °F 27.9 °F 98% 29.84 in 10.0 mi North - - N/A   Clear
12:55 AM 28.2 °F 27.5 °F 97% 29.83 in 10.0 mi North - - N/A   Clear
1:15 AM 28.4 °F 27.9 °F 98% 29.82 in 10.0 mi North - - N/A   Clear
1:35 AM 29.1 °F 28.4 °F 97% 29.81 in 10.0 mi North - - N/A   Clear
1:55 AM 30.0 °F 29.3 °F 97% 29.80 in 10.0 mi North - - N/A   Clear
2:15 AM 30.2 °F 29.3 °F 96% 29.79 in 10.0 mi North - - N/A   Clear
2:35 AM 30.7 °F 29.8 °F 96% 29.78 in 10.0 mi North - - N/A   Scattered Clouds
2:55 AM 31.1 °F 29.8 °F 95% 29.77 in 10.0 mi North - - N/A   Scattered Clouds
3:15 AM 31.1 °F 30.0 °F 96% 29.76 in 10.0 mi North - - N/A   Mostly Cloudy
3:35 AM 31.1 °F 30.0 °F 96% 29.74 in 10.0 mi North - - N/A   Scattered Clouds
3:55 AM 31.1 °F 30.2 °F 96% 29.72 in 10.0 mi North - - N/A   Mostly Cloudy
4:15 AM 31.8 °F 30.4 °F 94% 29.72 in 10.0 mi North - - N/A   Overcast
4:35 AM 32.0 °F 30.2 °F 93% 29.71 in 10.0 mi North - - N/A   Overcast
4:55 AM 32.0 °F 30.7 °F 95% 29.71 in 10.0 mi North - - N/A   Overcast
5:15 AM 32.2 °F 31.1 °F 96% 29.71 in 10.0 mi North - - N/A Snow Light Snow
5:35 AM 32.7 °F 32.0 °F 97% 29.71 in 7.0 mi North - - N/A Snow Light Snow
5:55 AM 32.9 °F 32.0 °F 96% 29.72 in 2.5 mi North - - N/A Snow Light Snow
6:15 AM 32.7 °F 32.0 °F 97% 29.72 in 2.5 mi North - - N/A Snow Light Snow
6:35 AM 33.3 °F 32.9 °F 99% 29.72 in 4.0 mi North - - N/A Snow Light Snow
6:55 AM 33.6 °F 33.3 °F 99% 29.72 in 5.0 mi North - - N/A Snow Light Snow
7:35 AM 32.9 °F 32.9 °F 100% 29.71 in 10.0 mi North - - N/A   Overcast
7:55 AM 33.4 °F 33.3 °F 99% 29.71 in 10.0 mi North - - N/A   Overcast
8:15 AM 33.1 °F 32.9 °F 99% 29.70 in 10.0 mi North - - N/A   Overcast
8:35 AM 33.8 °F 33.4 °F 99% 29.70 in 10.0 mi North - - N/A   Overcast
8:55 AM 33.8 °F 33.6 °F 99% 29.70 in 10.0 mi North - - N/A   Overcast
9:15 AM 34.2 °F 34.0 °F 99% 29.70 in 10.0 mi North - - N/A   Overcast
9:35 AM 34.7 °F 34.0 °F 97% 29.70 in 10.0 mi North - - N/A   Overcast
9:55 AM 34.7 °F 34.0 °F 97% 29.70 in 10.0 mi North - - N/A   Overcast
10:15 AM 34.7 °F 33.8 °F 97% 29.70 in 10.0 mi North - - N/A   Overcast
10:35 AM 34.9 °F 33.8 °F 96% 29.69 in 10.0 mi North - - N/A   Overcast
10:55 AM 35.6 °F 34.5 °F 96% 29.69 in 10.0 mi North - - N/A   Overcast
11:15 AM 35.2 °F 34.2 °F 96% 29.69 in 2.0 mi North - - N/A Snow Light Snow
11:35 AM 34.7 °F 34.2 °F 98% 29.68 in 0.5 mi North - - N/A Snow Snow
11:55 AM 34.3 °F 34.2 °F 99% 29.68 in 0.2 mi North - - N/A Snow Snow
12:15 PM 34.2 °F 34.2 °F 100% 29.68 in 0.8 mi North - - N/A Snow Light Snow
12:35 PM 33.1 °F 32.4 °F 97% 29.68 in 0.8 mi North - - N/A Snow Light Snow
12:55 PM 32.4 °F 32.0 °F 99% 29.69 in 0.5 mi North - - N/A Snow Snow
1:15 PM 32.0 °F 32.0 °F 100% 29.69 in 0.5 mi North - - N/A Snow Snow
1:35 PM 32.0 °F 31.1 °F 96% 29.70 in 1.5 mi North - - N/A Snow Light Snow
1:55 PM 30.9 °F 29.8 °F 96% 29.72 in 0.2 mi North - - N/A Snow Heavy Snow
2:15 PM 29.5 °F 28.6 °F 96% 29.73 in 0.2 mi North - - N/A Snow Heavy Snow
2:35 PM 28.8 °F 28.0 °F 97% 29.74 in 0.2 mi North - - N/A Snow Snow
2:55 PM 28.9 °F 27.7 °F 95% 29.76 in 0.8 mi North - - N/A Snow Light Snow
3:15 PM 27.3 °F 25.7 °F 94% 29.77 in 0.5 mi North - - N/A Snow Light Snow
3:35 PM 26.2 °F 24.1 °F 92% 29.79 in 0.8 mi North - - N/A Snow Light Snow
3:55 PM 25.5 °F 23.4 °F 92% 29.81 in 1.2 mi North - - N/A Snow Light Snow
4:15 PM 24.6 °F 22.1 °F 90% 29.83 in 1.5 mi North - - N/A Snow Light Snow
4:35 PM 23.9 °F 21.0 °F 89% 29.85 in 1.5 mi North - - N/A Snow Light Snow
4:55 PM 23.5 °F 20.3 °F 87% 29.87 in 1.8 mi North - - N/A Snow Light Snow
5:15 PM 23.0 °F 19.9 °F 88% 29.88 in 2.5 mi North - - N/A Snow Light Snow
5:35 PM 22.6 °F 20.3 °F 91% 29.90 in 1.2 mi North - - N/A Snow Light Snow
5:55 PM 22.1 °F 19.0 °F 88% 29.91 in 5.0 mi North - - N/A Snow Light Snow
6:15 PM 22.1 °F 18.3 °F 85% 29.92 in 7.0 mi North - - N/A Snow Light Snow
6:35 PM 22.1 °F 18.5 °F 86% 29.93 in 4.0 mi North - - N/A Snow Light Snow
6:55 PM 21.6 °F 18.1 °F 87% 29.93 in 3.0 mi North - - N/A Snow Light Snow
7:15 PM 21.0 °F 17.4 °F 86% 29.94 in 4.0 mi North - - N/A Snow Light Snow
7:35 PM 20.8 °F 18.0 °F 89% 29.94 in 3.0 mi North - - N/A Snow Light Snow
7:55 PM 20.3 °F 16.9 °F 87% 29.94 in 3.0 mi North - - N/A Snow Light Snow
8:15 PM 20.1 °F 15.8 °F 83% 29.95 in 7.0 mi North - - N/A Snow Light Snow
8:35 PM 20.1 °F 15.8 °F 83% 29.95 in 7.0 mi North - - N/A Snow Light Snow
8:55 PM 20.1 °F 15.1 °F 81% 29.96 in 10.0 mi North - - N/A Snow Light Snow
9:15 PM 20.1 °F 15.8 °F 83% 29.96 in 3.0 mi North - - N/A Snow Light Snow
9:35 PM 19.4 °F 16.2 °F 87% 29.98 in 3.0 mi North - - N/A Snow Light Snow
9:55 PM 18.9 °F 14.0 °F 81% 29.98 in 7.0 mi North - - N/A Snow Light Snow
10:15 PM 18.5 °F 13.5 °F 81% 29.98 in 5.0 mi North - - N/A Snow Light Snow
10:35 PM 18.1 °F 14.5 °F 86% 29.98 in 2.5 mi North - - N/A Snow Light Snow
11:15 PM 17.6 °F 13.8 °F 85% 29.98 in 5.0 mi North - - N/A Snow Light Snow
11:35 PM 16.7 °F 12.4 °F 83% 29.99 in 5.0 mi North - - N/A Snow Light Snow
11:55 PM 15.8 °F 11.1 °F 82% 29.99 in 10.0 mi North - - N/A Snow Light Snow